Time,TemperatureF,DewpointF,PressureIn,WindDirection,WindDirectionDegrees,WindSpeedMPH,WindSpeedGustMPH,Humidity,HourlyPrecipIn,Conditions,Clouds,dailyrainin,SoftwareType,DateUTC
2013-04-10 00:00:00,73.6,67.4,29.72,ESE,108,11.0,14.0,81,0.00,,---,0.00,VWS V14.01,2013-04-10 05:00:00,
2013-04-10 00:06:00,73.1,66.9,29.72,ENE,73,10.0,13.0,81,0.00,,---,0.00,VWS V14.01,2013-04-10 05:06:00,
2013-04-10 00:11:00,72.9,67.1,29.72,SE,146,9.0,13.0,82,0.00,,---,0.00,VWS V14.01,2013-04-10 05:11:00,
2013-04-10 00:17:00,73.1,67.3,29.72,ESE,117,7.0,13.0,82,0.00,,---,0.00,VWS V14.01,2013-04-10 05:17:00,
2013-04-10 00:22:00,73.2,67.0,29.72,ESE,110,8.0,13.0,81,0.00,,---,0.00,VWS V14.01,2013-04-10 05:22:00,
2013-04-10 00:27:00,72.9,67.1,29.72,SSE,156,9.0,13.0,82,0.00,,---,0.00,VWS V14.01,2013-04-10 05:27:00,
2013-04-10 00:32:00,73.3,67.5,29.72,ENE,69,10.0,11.0,82,0.00,,---,0.00,VWS V14.01,2013-04-10 05:32:00,
2013-04-10 00:37:00,73.2,67.4,29.72,East,85,10.0,14.0,82,0.00,,---,0.00,VWS V14.01,2013-04-10 05:37:00,
2013-04-10 00:42:00,73.4,67.2,29.72,East,95,9.0,14.0,81,0.00,,---,0.00,VWS V14.01,2013-04-10 05:42:00,
2013-04-10 00:47:00,73.2,67.4,29.71,East,98,10.0,14.0,82,0.00,,---,0.00,VWS V14.01,2013-04-10 05:47:00,
2013-04-10 00:52:00,73.2,67.4,29.71,South,186,9.0,16.0,82,0.00,,---,0.00,VWS V14.01,2013-04-10 05:52:00,
2013-04-10 00:57:00,73.2,67.0,29.72,ESE,110,7.0,16.0,81,0.00,,---,0.00,VWS V14.01,2013-04-10 05:57:00,
2013-04-10 01:02:00,73.0,67.2,29.71,ESE,110,9.0,13.0,82,0.00,,---,0.00,VWS V14.01,2013-04-10 06:02:00,
2013-04-10 01:07:00,73.0,67.5,29.72,ESE,104,9.0,16.0,83,0.00,,---,0.00,VWS V14.01,2013-04-10 06:07:00,
2013-04-10 01:12:00,73.2,67.7,29.72,East,101,12.0,16.0,83,0.00,,---,0.00,VWS V14.01,2013-04-10 06:12:00,
2013-04-10 01:17:00,73.1,68.0,29.72,East,80,14.0,17.0,84,0.00,,---,0.00,VWS V14.01,2013-04-10 06:17:00,
2013-04-10 01:22:00,72.9,67.8,29.72,East,96,12.0,17.0,84,0.00,,---,0.00,VWS V14.01,2013-04-10 06:22:00,
2013-04-10 01:27:00,72.8,67.7,29.73,SSW,205,8.0,17.0,84,0.00,,---,0.00,VWS V14.01,2013-04-10 06:27:00,
2013-04-10 01:32:00,72.6,67.8,29.73,East,94,10.0,12.0,85,0.00,,---,0.00,VWS V14.01,2013-04-10 06:32:00,
2013-04-10 01:37:00,72.4,67.6,29.72,East,83,12.0,14.0,85,0.00,,---,0.00,VWS V14.01,2013-04-10 06:37:00,
2013-04-10 01:42:00,72.5,67.7,29.73,SSE,163,7.0,16.0,85,0.00,,---,0.00,VWS V14.01,2013-04-10 06:42:00,
2013-04-10 01:47:00,72.3,67.9,29.72,East,101,6.0,16.0,86,0.00,,---,0.00,VWS V14.01,2013-04-10 06:47:00,
2013-04-10 01:52:00,72.3,67.9,29.72,ESE,113,7.0,16.0,86,0.00,,---,0.00,VWS V14.01,2013-04-10 06:52:00,
2013-04-10 01:57:00,72.0,67.9,29.72,East,98,9.0,16.0,87,0.00,,---,0.00,VWS V14.01,2013-04-10 06:57:00,
2013-04-10 02:02:00,71.9,67.5,29.71,ESE,110,7.0,10.0,86,0.00,,---,0.00,VWS V14.01,2013-04-10 07:02:00,
2013-04-10 02:07:00,71.9,67.5,29.71,East,101,10.0,10.0,86,0.00,,---,0.00,VWS V14.01,2013-04-10 07:07:00,
2013-04-10 02:12:00,71.9,67.8,29.70,ESE,108,8.0,13.0,87,0.00,,---,0.00,VWS V14.01,2013-04-10 07:12:00,
2013-04-10 02:17:00,72.3,68.2,29.70,East,99,11.0,13.0,87,0.00,,---,0.00,VWS V14.01,2013-04-10 07:17:00,
2013-04-10 02:22:00,72.3,67.9,29.70,East,89,14.0,17.0,86,0.00,,---,0.00,VWS V14.01,2013-04-10 07:22:00,
2013-04-10 02:27:00,72.2,67.8,29.70,ESE,111,9.0,18.0,86,0.00,,---,0.00,VWS V14.01,2013-04-10 07:27:00,
2013-04-10 02:32:00,72.3,67.9,29.69,East,101,12.0,16.0,86,0.00,,---,0.00,VWS V14.01,2013-04-10 07:32:00,
2013-04-10 02:37:00,72.2,67.4,29.69,East,94,14.0,18.0,85,0.00,,---,0.00,VWS V14.01,2013-04-10 07:37:00,
2013-04-10 02:42:00,72.2,67.8,29.69,ESE,117,12.0,20.0,86,0.00,,---,0.00,VWS V14.01,2013-04-10 07:42:00,
2013-04-10 02:47:00,71.8,67.4,29.69,ESE,121,14.0,20.0,86,0.00,,---,0.00,VWS V14.01,2013-04-10 07:47:00,
2013-04-10 02:52:00,71.9,67.5,29.69,ESE,110,10.0,20.0,86,0.00,,---,0.00,VWS V14.01,2013-04-10 07:52:00,
2013-04-10 02:57:00,71.8,67.4,29.69,East,82,8.0,20.0,86,0.00,,---,0.00,VWS V14.01,2013-04-10 07:57:00,
2013-04-10 03:02:00,71.8,67.7,29.69,ESE,117,11.0,14.0,87,0.00,,---,0.00,VWS V14.01,2013-04-10 08:02:00,
2013-04-10 03:07:00,71.7,67.3,29.69,SE,133,6.0,16.0,86,0.00,,---,0.00,VWS V14.01,2013-04-10 08:07:00,
2013-04-10 03:12:00,71.6,67.5,29.69,SE,129,10.0,16.0,87,0.00,,---,0.00,VWS V14.01,2013-04-10 08:12:00,
2013-04-10 03:17:00,71.6,67.5,29.69,SSE,151,6.0,16.0,87,0.00,,---,0.00,VWS V14.01,2013-04-10 08:17:00,
2013-04-10 03:22:00,71.6,67.9,29.68,SE,143,12.0,16.0,88,0.00,,---,0.00,VWS V14.01,2013-04-10 08:22:00,
2013-04-10 03:27:00,71.6,67.2,29.69,South,176,6.0,16.0,86,0.00,,---,0.00,VWS V14.01,2013-04-10 08:27:00,
2013-04-10 03:32:00,71.5,67.1,29.69,ESE,117,8.0,10.0,86,0.00,,---,0.00,VWS V14.01,2013-04-10 08:32:00,
2013-04-10 03:37:00,71.3,66.9,29.69,East,95,6.0,12.0,86,0.00,,---,0.00,VWS V14.01,2013-04-10 08:37:00,
2013-04-10 03:42:00,71.1,66.7,29.69,ESE,105,6.0,12.0,86,0.00,,---,0.00,VWS V14.01,2013-04-10 08:42:00,
2013-04-10 03:47:00,70.9,66.8,29.69,SE,127,5.0,12.0,87,0.00,,---,0.00,VWS V14.01,2013-04-10 08:47:00,
2013-04-10 03:52:00,70.5,66.4,29.68,ESE,117,8.0,12.0,87,0.00,,---,0.00,VWS V14.01,2013-04-10 08:52:00,
2013-04-10 03:57:00,70.9,66.8,29.68,ESE,111,6.0,13.0,87,0.00,,---,0.00,VWS V14.01,2013-04-10 08:57:00,
2013-04-10 04:02:00,70.7,66.3,29.68,SE,124,5.0,9.0,86,0.00,,---,0.00,VWS V14.01,2013-04-10 09:02:00,
2013-04-10 04:07:00,70.5,66.8,29.68,SSE,165,5.0,9.0,88,0.00,,---,0.00,VWS V14.01,2013-04-10 09:07:00,
2013-04-10 04:12:00,70.7,67.0,29.68,SE,138,5.0,11.0,88,0.00,,---,0.00,VWS V14.01,2013-04-10 09:12:00,
2013-04-10 04:17:00,71.1,67.0,29.68,East,97,10.0,11.0,87,0.00,,---,0.00,VWS V14.01,2013-04-10 09:17:00,
2013-04-10 04:22:00,71.0,66.6,29.68,SSE,156,4.0,11.0,86,0.00,,---,0.00,VWS V14.01,2013-04-10 09:22:00,
2013-04-10 04:27:00,71.0,66.6,29.68,ESE,117,4.0,11.0,86,0.00,,---,0.00,VWS V14.01,2013-04-10 09:27:00,
2013-04-10 04:32:00,70.9,66.5,29.67,ESE,120,4.0,6.0,86,0.00,,---,0.00,VWS V14.01,2013-04-10 09:32:00,
2013-04-10 04:37:00,70.6,66.6,29.67,ESE,117,8.0,8.0,87,0.00,,---,0.00,VWS V14.01,2013-04-10 09:37:00,
2013-04-10 04:42:00,70.6,66.6,29.68,ESE,120,5.0,8.0,87,0.00,,---,0.00,VWS V14.01,2013-04-10 09:42:00,
2013-04-10 04:47:00,70.4,66.0,29.68,SE,124,4.0,8.0,86,0.00,,---,0.00,VWS V14.01,2013-04-10 09:47:00,
2013-04-10 04:52:00,70.1,66.1,29.68,SSE,163,3.0,8.0,87,0.00,,---,0.00,VWS V14.01,2013-04-10 09:52:00,
2013-04-10 04:57:00,70.2,66.2,29.68,ESE,120,3.0,8.0,87,0.00,,---,0.00,VWS V14.01,2013-04-10 09:57:00,
2013-04-10 05:02:00,70.3,66.2,29.69,SSE,156,2.0,4.0,87,0.00,,---,0.00,VWS V14.01,2013-04-10 10:02:00,
2013-04-10 05:08:00,70.5,66.8,29.69,SSE,163,2.0,4.0,88,0.00,,---,0.00,VWS V14.01,2013-04-10 10:08:00,
2013-04-10 05:13:00,70.9,66.8,29.69,East,82,3.0,6.0,87,0.00,,---,0.00,VWS V14.01,2013-04-10 10:13:00,
2013-04-10 05:18:00,71.3,66.9,29.69,South,184,5.0,7.0,86,0.00,,---,0.00,VWS V14.01,2013-04-10 10:18:00,
2013-04-10 05:22:00,71.5,66.8,29.70,South,169,4.0,9.0,85,0.00,,---,0.00,VWS V14.01,2013-04-10 10:22:00,
2013-04-10 05:28:00,71.6,66.9,29.70,SSE,166,6.0,9.0,85,0.00,,---,0.00,VWS V14.01,2013-04-10 10:28:00,
2013-04-10 05:33:00,71.6,66.5,29.70,SSE,166,6.0,9.0,84,0.00,,---,0.00,VWS V14.01,2013-04-10 10:33:00,
2013-04-10 05:38:00,71.5,66.4,29.70,SSE,158,6.0,9.0,84,0.00,,---,0.00,VWS V14.01,2013-04-10 10:38:00,
2013-04-10 05:42:00,71.4,66.7,29.70,SSE,161,7.0,9.0,85,0.00,,---,0.00,VWS V14.01,2013-04-10 10:42:00,
2013-04-10 05:47:00,71.4,66.7,29.70,South,173,4.0,9.0,85,0.00,,---,0.00,VWS V14.01,2013-04-10 10:47:00,
2013-04-10 05:53:00,71.3,66.6,29.71,SSW,193,9.0,9.0,85,0.00,,---,0.00,VWS V14.01,2013-04-10 10:53:00,
2013-04-10 05:58:00,71.4,66.3,29.71,SSE,155,5.0,9.0,84,0.00,,---,0.00,VWS V14.01,2013-04-10 10:58:00,
2013-04-10 06:02:00,71.5,66.4,29.71,SSE,161,6.0,11.0,84,0.00,,---,0.00,VWS V14.01,2013-04-10 11:02:00,
2013-04-10 06:07:00,71.7,66.3,29.71,SSE,153,7.0,11.0,83,0.00,,---,0.00,VWS V14.01,2013-04-10 11:07:00,
2013-04-10 06:12:00,71.9,66.5,29.71,SSE,157,5.0,11.0,83,0.00,,---,0.00,VWS V14.01,2013-04-10 11:12:00,
2013-04-10 06:17:00,71.8,66.4,29.71,SSE,165,5.0,11.0,83,0.00,,---,0.00,VWS V14.01,2013-04-10 11:17:00,
2013-04-10 06:22:00,71.7,65.9,29.71,SSE,156,5.0,11.0,82,0.00,,---,0.00,VWS V14.01,2013-04-10 11:22:00,
2013-04-10 06:27:00,71.4,65.6,29.71,South,177,6.0,11.0,82,0.00,,---,0.00,VWS V14.01,2013-04-10 11:27:00,
2013-04-10 06:32:00,71.2,65.8,29.71,SSE,163,5.0,6.0,83,0.00,,---,0.00,VWS V14.01,2013-04-10 11:32:00,
2013-04-10 06:37:00,71.1,65.7,29.71,SSE,163,9.0,9.0,83,0.00,,---,0.00,VWS V14.01,2013-04-10 11:37:00,
2013-04-10 06:42:00,71.1,65.7,29.71,South,181,7.0,11.0,83,0.00,,---,0.00,VWS V14.01,2013-04-10 11:42:00,
2013-04-10 06:47:00,71.1,65.7,29.71,SSE,165,12.0,13.0,83,0.00,,---,0.00,VWS V14.01,2013-04-10 11:47:00,
2013-04-10 06:52:00,71.2,65.8,29.71,ESE,103,3.0,14.0,83,0.00,,---,0.00,VWS V14.01,2013-04-10 11:52:00,
2013-04-10 06:57:00,70.8,65.4,29.71,SSE,166,4.0,14.0,83,0.00,,---,0.00,VWS V14.01,2013-04-10 11:57:00,
2013-04-10 07:02:00,70.2,65.1,29.71,SSE,153,5.0,9.0,84,0.00,,---,0.00,VWS V14.01,2013-04-10 12:02:00,
2013-04-10 07:07:00,70.2,65.5,29.71,South,171,5.0,9.0,85,0.00,,---,0.00,VWS V14.01,2013-04-10 12:07:00,
2013-04-10 07:12:00,70.1,65.4,29.71,South,171,3.0,9.0,85,0.00,,---,0.00,VWS V14.01,2013-04-10 12:12:00,
2013-04-10 07:17:00,69.8,63.7,29.73,West,261,3.0,18.0,81,0.00,,---,0.00,VWS V14.01,2013-04-10 12:17:00,
2013-04-10 07:22:00,66.1,58.7,29.74,East,92,4.0,18.0,77,0.00,,---,0.00,VWS V14.01,2013-04-10 12:22:00,
2013-04-10 07:27:00,62.8,56.2,29.75,NW,311,11.0,18.0,79,0.00,,---,0.00,VWS V14.01,2013-04-10 12:27:00,
2013-04-10 07:32:00,60.1,54.6,29.75,NW,311,7.0,12.0,82,0.00,,---,0.00,VWS V14.01,2013-04-10 12:32:00,
2013-04-10 07:37:00,58.7,53.9,29.76,WNW,287,11.0,14.0,84,0.00,,---,0.00,VWS V14.01,2013-04-10 12:37:00,
2013-04-10 07:42:00,57.1,52.3,29.76,NW,309,11.0,18.0,84,0.00,,---,0.00,VWS V14.01,2013-04-10 12:42:00,
2013-04-10 07:47:00,55.7,51.3,29.76,NW,311,7.0,18.0,85,0.00,,---,0.00,VWS V14.01,2013-04-10 12:47:00,
2013-04-10 07:52:00,54.4,49.7,29.78,WNW,293,10.0,18.0,84,0.00,,---,0.00,VWS V14.01,2013-04-10 12:52:00,
2013-04-10 07:57:00,52.9,48.5,29.79,NNW,335,4.0,18.0,85,0.00,,---,0.00,VWS V14.01,2013-04-10 12:57:00,
2013-04-10 08:02:00,52.1,48.0,29.79,WNW,303,9.0,14.0,86,0.00,,---,0.00,VWS V14.01,2013-04-10 13:02:00,
2013-04-10 08:07:00,51.0,47.3,29.79,WNW,302,9.0,14.0,87,0.00,,---,0.00,VWS V14.01,2013-04-10 13:07:00,
2013-04-10 08:12:00,50.3,46.6,29.80,NNW,328,8.0,14.0,87,0.00,,---,0.00,VWS V14.01,2013-04-10 13:12:00,
2013-04-10 08:17:00,49.7,46.0,29.80,North,1,5.0,14.0,87,0.00,,---,0.00,VWS V14.01,2013-04-10 13:17:00,
2013-04-10 08:22:00,49.0,45.6,29.80,WNW,302,8.0,17.0,88,0.00,,---,0.00,VWS V14.01,2013-04-10 13:22:00,
2013-04-10 08:27:00,48.4,45.0,29.80,NW,310,4.0,17.0,88,0.00,,---,0.00,VWS V14.01,2013-04-10 13:27:00,
2013-04-10 08:32:00,48.1,44.7,29.80,NNW,346,5.0,10.0,88,0.00,,---,0.00,VWS V14.01,2013-04-10 13:32:00,
2013-04-10 08:37:00,48.0,45.2,29.81,WNW,302,4.0,10.0,90,0.00,,---,0.00,VWS V14.01,2013-04-10 13:37:00,
2013-04-10 08:43:00,47.8,44.7,29.80,NW,305,7.0,10.0,89,0.00,,---,0.00,VWS V14.01,2013-04-10 13:43:00,
2013-04-10 08:48:00,47.7,44.9,29.81,WNW,300,5.0,10.0,90,0.00,,---,0.00,VWS V14.01,2013-04-10 13:48:00,
2013-04-10 08:53:00,47.6,44.8,29.81,NNW,333,2.0,10.0,90,0.00,,---,0.00,VWS V14.01,2013-04-10 13:53:00,
2013-04-10 08:58:00,47.6,44.8,29.81,NW,318,2.0,10.0,90,0.00,,---,0.00,VWS V14.01,2013-04-10 13:58:00,
2013-04-10 09:02:00,47.6,44.8,29.81,NW,305,4.0,4.0,90,0.00,,---,0.00,VWS V14.01,2013-04-10 14:02:00,
2013-04-10 09:08:00,47.6,44.8,29.81,NNW,348,5.0,6.0,90,0.00,,---,0.00,VWS V14.01,2013-04-10 14:08:00,
2013-04-10 09:13:00,47.5,44.7,29.81,NW,307,4.0,6.0,90,0.00,,---,0.00,VWS V14.01,2013-04-10 14:13:00,
2013-04-10 09:18:00,47.5,44.7,29.81,NNW,344,4.0,6.0,90,0.00,,---,0.00,VWS V14.01,2013-04-10 14:18:00,
2013-04-10 09:23:00,47.4,44.6,29.81,WNW,300,6.0,10.0,90,0.00,,---,0.00,VWS V14.01,2013-04-10 14:23:00,
2013-04-10 09:28:00,47.3,44.5,29.81,WNW,296,2.0,10.0,90,0.00,,---,0.00,VWS V14.01,2013-04-10 14:28:00,
2013-04-10 09:33:00,47.4,44.9,29.81,NW,316,2.0,6.0,91,0.00,,---,0.00,VWS V14.01,2013-04-10 14:33:00,
2013-04-10 09:38:00,47.5,45.0,29.82,NW,304,3.0,6.0,91,0.00,,---,0.00,VWS V14.01,2013-04-10 14:38:00,
2013-04-10 09:43:00,47.7,45.2,29.82,NW,318,4.0,7.0,91,0.00,,---,0.00,VWS V14.01,2013-04-10 14:43:00,
2013-04-10 09:48:00,47.5,44.7,29.81,NW,304,5.0,8.0,90,0.00,,---,0.00,VWS V14.01,2013-04-10 14:48:00,
2013-04-10 09:53:00,47.4,44.6,29.81,NW,323,3.0,8.0,90,0.00,,---,0.00,VWS V14.01,2013-04-10 14:53:00,
2013-04-10 09:58:00,47.4,44.9,29.81,NW,308,3.0,8.0,91,0.00,,---,0.00,VWS V14.01,2013-04-10 14:58:00,
2013-04-10 10:03:00,47.5,44.7,29.82,NW,311,6.0,9.0,90,0.00,,---,0.00,VWS V14.01,2013-04-10 15:03:00,
2013-04-10 10:08:00,47.3,44.8,29.82,NW,326,5.0,9.0,91,0.00,,---,0.00,VWS V14.01,2013-04-10 15:08:00,
2013-04-10 10:13:00,47.2,44.7,29.82,NW,308,5.0,9.0,91,0.00,,---,0.00,VWS V14.01,2013-04-10 15:13:00,
2013-04-10 10:18:00,47.1,44.6,29.82,NW,304,5.0,9.0,91,0.00,,---,0.00,VWS V14.01,2013-04-10 15:18:00,
2013-04-10 10:23:00,47.0,44.5,29.82,NNW,329,3.0,9.0,91,0.00,,---,0.00,VWS V14.01,2013-04-10 15:23:00,
2013-04-10 10:28:00,46.9,44.4,29.82,NNW,331,4.0,9.0,91,0.00,,---,0.00,VWS V14.01,2013-04-10 15:28:00,
2013-04-10 10:33:00,46.9,44.7,29.83,NW,309,2.0,4.0,92,0.00,,---,0.00,VWS V14.01,2013-04-10 15:33:00,
2013-04-10 10:38:00,46.8,44.6,29.82,NW,320,2.0,9.0,92,0.00,,---,0.00,VWS V14.01,2013-04-10 15:38:00,
2013-04-10 10:43:00,46.6,44.1,29.82,NW,320,4.0,9.0,91,0.00,,---,0.00,VWS V14.01,2013-04-10 15:43:00,
2013-04-10 10:48:00,46.7,44.5,29.82,WNW,301,0.0,9.0,92,0.00,,---,0.00,VWS V14.01,2013-04-10 15:48:00,
2013-04-10 10:53:00,46.6,44.1,29.82,North,8,6.0,9.0,91,0.00,,---,0.00,VWS V14.01,2013-04-10 15:53:00,
2013-04-10 10:57:00,46.6,44.1,29.82,NW,321,2.0,9.0,91,0.00,,---,0.00,VWS V14.01,2013-04-10 15:57:00,
2013-04-10 11:02:00,46.5,44.0,29.82,NW,325,3.0,9.0,91,0.00,,---,0.00,VWS V14.01,2013-04-10 16:02:00,
2013-04-10 11:07:00,46.5,44.0,29.82,NW,307,4.0,9.0,91,0.00,,---,0.00,VWS V14.01,2013-04-10 16:07:00,
2013-04-10 11:12:00,46.4,43.9,29.82,SE,138,3.0,9.0,91,0.00,,---,0.00,VWS V14.01,2013-04-10 16:12:00,
2013-04-10 11:17:00,46.4,43.9,29.82,NW,321,0.0,9.0,91,0.00,,---,0.00,VWS V14.01,2013-04-10 16:17:00,
2013-04-10 11:22:00,46.4,43.9,29.82,West,276,2.0,9.0,91,0.00,,---,0.00,VWS V14.01,2013-04-10 16:22:00,
2013-04-10 11:27:00,46.5,44.0,29.82,NW,307,5.0,9.0,91,0.00,,---,0.00,VWS V14.01,2013-04-10 16:27:00,
2013-04-10 11:32:00,46.4,43.9,29.82,NW,308,3.0,7.0,91,0.00,,---,0.00,VWS V14.01,2013-04-10 16:32:00,
2013-04-10 11:37:00,46.3,44.1,29.82,NW,310,2.0,7.0,92,0.00,,---,0.00,VWS V14.01,2013-04-10 16:37:00,
2013-04-10 11:42:00,46.4,44.2,29.82,NW,312,5.0,8.0,92,0.00,,---,0.00,VWS V14.01,2013-04-10 16:42:00,
2013-04-10 11:47:00,46.4,44.2,29.82,West,276,3.0,8.0,92,0.00,,---,0.00,VWS V14.01,2013-04-10 16:47:00,
2013-04-10 11:52:00,46.3,43.8,29.81,NW,314,6.0,9.0,91,0.00,,---,0.00,VWS V14.01,2013-04-10 16:52:00,
2013-04-10 11:57:00,46.2,44.0,29.81,NW,307,2.0,9.0,92,0.00,,---,0.00,VWS V14.01,2013-04-10 16:57:00,
2013-04-10 12:02:00,46.1,43.9,29.82,NW,311,6.0,8.0,92,0.00,,---,0.00,VWS V14.01,2013-04-10 17:02:00,
2013-04-10 12:07:00,45.8,43.3,29.82,NW,304,8.0,12.0,91,0.00,,---,0.00,VWS V14.01,2013-04-10 17:07:00,
2013-04-10 12:12:00,45.3,42.8,29.82,NNW,345,5.0,13.0,91,0.00,,---,0.00,VWS V14.01,2013-04-10 17:12:00,
2013-04-10 12:18:00,45.1,42.9,29.83,North,349,7.0,13.0,92,0.00,,---,0.00,VWS V14.01,2013-04-10 17:18:00,
2013-04-10 12:23:00,44.7,42.2,29.83,WNW,293,11.0,14.0,91,0.00,,---,0.00,VWS V14.01,2013-04-10 17:23:00,
2013-04-10 12:28:00,44.5,42.3,29.83,NW,307,7.0,14.0,92,0.00,,---,0.00,VWS V14.01,2013-04-10 17:28:00,
2013-04-10 12:33:00,44.2,42.0,29.83,NW,321,2.0,10.0,92,0.00,,---,0.00,VWS V14.01,2013-04-10 17:33:00,
2013-04-10 12:38:00,44.1,41.9,29.83,NNW,340,6.0,10.0,92,0.01,,---,0.01,VWS V14.01,2013-04-10 17:38:00,
2013-04-10 12:43:00,44.0,42.1,29.83,SSW,210,3.0,10.0,93,0.01,,---,0.01,VWS V14.01,2013-04-10 17:43:00,
2013-04-10 12:48:00,44.0,41.8,29.83,NW,312,3.0,11.0,92,0.01,,---,0.01,VWS V14.01,2013-04-10 17:48:00,
2013-04-10 12:53:00,43.9,41.7,29.81,NW,307,5.0,11.0,92,0.01,,---,0.01,VWS V14.01,2013-04-10 17:53:00,
2013-04-10 12:58:00,43.6,41.4,29.82,NW,319,5.0,11.0,92,0.01,,---,0.01,VWS V14.01,2013-04-10 17:58:00,
2013-04-10 13:03:00,43.5,41.3,29.83,ESE,106,3.0,9.0,92,0.01,,---,0.01,VWS V14.01,2013-04-10 18:03:00,
2013-04-10 13:08:00,43.4,41.2,29.82,WNW,300,3.0,9.0,92,0.01,,---,0.01,VWS V14.01,2013-04-10 18:08:00,
2013-04-10 13:13:00,43.4,41.5,29.83,WNW,300,11.0,11.0,93,0.01,,---,0.01,VWS V14.01,2013-04-10 18:13:00,
2013-04-10 13:18:00,43.4,41.2,29.83,WNW,297,7.0,16.0,92,0.01,,---,0.01,VWS V14.01,2013-04-10 18:18:00,
2013-04-10 13:23:00,43.3,41.1,29.83,WNW,303,5.0,16.0,92,0.01,,---,0.01,VWS V14.01,2013-04-10 18:23:00,
2013-04-10 13:28:00,43.0,40.6,29.83,WNW,287,4.0,16.0,91,0.01,,---,0.01,VWS V14.01,2013-04-10 18:28:00,
2013-04-10 13:33:00,42.9,40.5,29.84,NW,318,4.0,12.0,91,0.01,,---,0.01,VWS V14.01,2013-04-10 18:33:00,
2013-04-10 13:38:00,42.7,40.3,29.81,NW,312,3.0,12.0,91,0.01,,---,0.01,VWS V14.01,2013-04-10 18:38:00,
2013-04-10 13:43:00,42.7,40.5,29.80,WSW,238,1.0,12.0,92,0.01,,---,0.01,VWS V14.01,2013-04-10 18:43:00,
2013-04-10 13:48:00,42.7,40.5,29.83,WNW,297,4.0,12.0,92,0.02,,---,0.02,VWS V14.01,2013-04-10 18:48:00,
2013-04-10 13:53:00,42.9,41.0,29.87,WNW,298,11.0,13.0,93,0.03,,---,0.03,VWS V14.01,2013-04-10 18:53:00,
2013-04-10 13:58:00,42.8,40.9,29.86,WNW,294,11.0,13.0,93,0.04,,---,0.04,VWS V14.01,2013-04-10 18:58:00,
2013-04-10 14:03:00,42.8,40.9,29.83,NW,309,5.0,11.0,93,0.04,,---,0.05,VWS V14.01,2013-04-10 19:03:00,
2013-04-10 14:08:00,42.5,40.6,29.86,NW,314,7.0,12.0,93,0.05,,---,0.06,VWS V14.01,2013-04-10 19:08:00,
2013-04-10 14:13:00,42.4,40.5,29.88,NW,304,3.0,13.0,93,0.06,,---,0.07,VWS V14.01,2013-04-10 19:13:00,
2013-04-10 14:18:00,42.5,40.9,29.87,North,4,6.0,13.0,94,0.07,,---,0.08,VWS V14.01,2013-04-10 19:18:00,
2013-04-10 14:23:00,42.3,40.4,29.82,NNW,330,1.0,13.0,93,0.08,,---,0.09,VWS V14.01,2013-04-10 19:23:00,
2013-04-10 14:28:00,42.2,40.6,29.84,West,273,1.0,13.0,94,0.08,,---,0.09,VWS V14.01,2013-04-10 19:28:00,
2013-04-10 14:33:00,42.4,40.8,29.83,NNW,334,2.0,6.0,94,0.09,,---,0.10,VWS V14.01,2013-04-10 19:33:00,
2013-04-10 14:38:00,42.4,40.8,29.83,WNW,297,5.0,12.0,94,0.09,,---,0.10,VWS V14.01,2013-04-10 19:38:00,
2013-04-10 14:43:00,42.2,40.3,29.82,WNW,290,2.0,12.0,93,0.10,,---,0.11,VWS V14.01,2013-04-10 19:43:00,
2013-04-10 14:48:00,42.0,40.1,29.82,WNW,297,3.0,12.0,93,0.10,,---,0.11,VWS V14.01,2013-04-10 19:48:00,
2013-04-10 14:53:00,42.1,40.5,29.84,WNW,297,2.0,12.0,94,0.10,,---,0.11,VWS V14.01,2013-04-10 19:53:00,
2013-04-10 14:58:00,42.0,40.1,29.84,WNW,295,7.0,12.0,93,0.10,,---,0.11,VWS V14.01,2013-04-10 19:58:00,
2013-04-10 15:03:00,41.9,40.0,29.82,NW,319,4.0,8.0,93,0.06,,---,0.11,VWS V14.01,2013-04-10 20:03:00,
2013-04-10 15:08:00,41.9,40.0,29.83,NW,311,3.0,8.0,93,0.06,,---,0.11,VWS V14.01,2013-04-10 20:08:00,
2013-04-10 15:13:00,42.0,40.4,29.82,NW,317,4.0,9.0,94,0.07,,---,0.12,VWS V14.01,2013-04-10 20:13:00,
2013-04-10 15:18:00,42.0,40.1,29.82,WNW,299,7.0,9.0,93,0.07,,---,0.12,VWS V14.01,2013-04-10 20:18:00,
2013-04-10 15:23:00,42.1,40.5,29.81,WNW,288,3.0,9.0,94,0.08,,---,0.13,VWS V14.01,2013-04-10 20:23:00,
2013-04-10 15:28:00,42.1,40.5,29.83,NW,308,3.0,9.0,94,0.08,,---,0.13,VWS V14.01,2013-04-10 20:28:00,
2013-04-10 15:33:00,42.2,40.6,29.83,NW,308,3.0,6.0,94,0.03,,---,0.13,VWS V14.01,2013-04-10 20:33:00,
2013-04-10 15:38:00,42.4,40.8,29.83,WNW,297,6.0,8.0,94,0.03,,---,0.13,VWS V14.01,2013-04-10 20:38:00,
2013-04-10 15:43:00,42.2,40.3,29.80,NW,304,6.0,11.0,93,0.05,,---,0.15,VWS V14.01,2013-04-10 20:43:00,
2013-04-10 15:48:00,42.2,40.6,29.81,NW,307,6.0,11.0,94,0.07,,---,0.17,VWS V14.01,2013-04-10 20:48:00,
2013-04-10 15:53:00,42.2,40.6,29.81,West,269,2.0,11.0,94,0.11,,---,0.21,VWS V14.01,2013-04-10 20:53:00,
2013-04-10 15:58:00,42.2,40.6,29.82,WNW,299,2.0,11.0,94,0.11,,---,0.21,VWS V14.01,2013-04-10 20:58:00,
2013-04-10 16:03:00,42.3,40.7,29.83,NW,313,5.0,8.0,94,0.10,,---,0.21,VWS V14.01,2013-04-10 21:03:00,
2013-04-10 16:08:00,42.3,40.7,29.82,WNW,294,6.0,9.0,94,0.10,,---,0.21,VWS V14.01,2013-04-10 21:08:00,
2013-04-10 16:13:00,42.4,40.8,29.81,NNW,339,8.0,9.0,94,0.10,,---,0.21,VWS V14.01,2013-04-10 21:13:00,
2013-04-10 16:18:00,42.5,40.9,29.82,NW,315,4.0,11.0,94,0.10,,---,0.21,VWS V14.01,2013-04-10 21:18:00,
2013-04-10 16:23:00,42.8,41.2,29.83,NNW,342,3.0,11.0,94,0.12,,---,0.23,VWS V14.01,2013-04-10 21:23:00,
2013-04-10 16:28:00,43.1,41.5,29.83,NW,304,5.0,11.0,94,0.12,,---,0.23,VWS V14.01,2013-04-10 21:28:00,
2013-04-10 16:33:00,43.2,41.6,29.83,NW,304,4.0,5.0,94,0.10,,---,0.23,VWS V14.01,2013-04-10 21:33:00,
2013-04-10 16:38:00,43.3,41.7,29.83,NW,307,4.0,8.0,94,0.10,,---,0.23,VWS V14.01,2013-04-10 21:38:00,
2013-04-10 16:43:00,43.5,41.9,29.82,NW,315,5.0,10.0,94,0.10,,---,0.23,VWS V14.01,2013-04-10 21:43:00,
2013-04-10 16:48:00,43.6,42.0,29.82,NW,307,7.0,10.0,94,0.10,,---,0.23,VWS V14.01,2013-04-10 21:48:00,
2013-04-10 16:53:00,43.5,41.9,29.83,WNW,297,6.0,10.0,94,0.11,,---,0.24,VWS V14.01,2013-04-10 21:53:00,
2013-04-10 16:58:00,43.5,41.9,29.82,NW,308,4.0,10.0,94,0.11,,---,0.24,VWS V14.01,2013-04-10 21:58:00,
2013-04-10 17:03:00,43.3,41.4,29.83,WNW,302,3.0,7.0,93,0.03,,---,0.24,VWS V14.01,2013-04-10 22:03:00,
2013-04-10 17:08:00,43.2,41.3,29.82,NW,305,6.0,12.0,93,0.03,,---,0.24,VWS V14.01,2013-04-10 22:08:00,
2013-04-10 17:13:00,43.0,41.1,29.83,NW,309,14.0,15.0,93,0.03,,---,0.24,VWS V14.01,2013-04-10 22:13:00,
2013-04-10 17:18:00,43.0,41.1,29.83,NW,311,6.0,15.0,93,0.03,,---,0.24,VWS V14.01,2013-04-10 22:18:00,
2013-04-10 17:23:00,43.0,41.1,29.83,NW,310,6.0,15.0,93,0.03,,---,0.24,VWS V14.01,2013-04-10 22:23:00,
2013-04-10 17:28:00,43.1,41.2,29.83,NW,309,3.0,15.0,93,0.03,,---,0.24,VWS V14.01,2013-04-10 22:28:00,
2013-04-10 17:33:00,43.3,41.4,29.83,NNW,335,5.0,7.0,93,0.01,,---,0.24,VWS V14.01,2013-04-10 22:33:00,
2013-04-10 17:38:00,43.3,41.4,29.83,WNW,299,6.0,9.0,93,0.01,,---,0.24,VWS V14.01,2013-04-10 22:38:00,
2013-04-10 17:43:00,43.4,41.5,29.84,NNW,342,7.0,9.0,93,0.01,,---,0.24,VWS V14.01,2013-04-10 22:43:00,
2013-04-10 17:48:00,43.3,41.1,29.84,WNW,298,9.0,10.0,92,0.01,,---,0.24,VWS V14.01,2013-04-10 22:48:00,
2013-04-10 17:53:00,43.2,41.0,29.85,NW,312,4.0,12.0,92,0.01,,---,0.24,VWS V14.01,2013-04-10 22:53:00,
2013-04-10 17:58:00,43.2,41.0,29.85,NW,310,6.0,12.0,92,0.01,,---,0.24,VWS V14.01,2013-04-10 22:58:00,
2013-04-10 18:03:00,43.2,40.8,29.85,NW,324,6.0,9.0,91,0.00,,---,0.24,VWS V14.01,2013-04-10 23:03:00,
2013-04-10 18:08:00,43.2,40.8,29.86,NW,315,4.0,9.0,91,0.00,,---,0.24,VWS V14.01,2013-04-10 23:08:00,
2013-04-10 18:13:00,43.2,41.0,29.86,NW,316,3.0,9.0,92,0.00,,---,0.24,VWS V14.01,2013-04-10 23:13:00,
2013-04-10 18:18:00,43.1,40.9,29.86,NW,308,8.0,11.0,92,0.00,,---,0.24,VWS V14.01,2013-04-10 23:18:00,
2013-04-10 18:23:00,42.8,40.1,29.86,WNW,302,5.0,11.0,90,0.00,,---,0.24,VWS V14.01,2013-04-10 23:23:00,
2013-04-10 18:28:00,42.7,40.3,29.86,NW,304,5.0,11.0,91,0.00,,---,0.24,VWS V14.01,2013-04-10 23:28:00,
2013-04-10 18:33:00,42.7,40.3,29.86,WNW,297,7.0,9.0,91,0.00,,---,0.24,VWS V14.01,2013-04-10 23:33:00,
2013-04-10 18:38:00,42.7,40.3,29.86,NNW,328,4.0,9.0,91,0.00,,---,0.24,VWS V14.01,2013-04-10 23:38:00,
2013-04-10 18:43:00,42.6,40.2,29.86,NW,311,5.0,10.0,91,0.00,,---,0.24,VWS V14.01,2013-04-10 23:43:00,
2013-04-10 18:48:00,42.5,40.1,29.86,WNW,300,6.0,10.0,91,0.00,,---,0.24,VWS V14.01,2013-04-10 23:48:00,
2013-04-10 18:53:00,42.4,39.7,29.86,NW,308,6.0,13.0,90,0.00,,---,0.24,VWS V14.01,2013-04-10 23:53:00,
2013-04-10 18:58:00,42.4,39.7,29.87,NW,315,1.0,13.0,90,0.00,,---,0.24,VWS V14.01,2013-04-10 23:58:00,
2013-04-10 19:03:00,42.4,39.7,29.87,NW,308,5.0,10.0,90,0.00,,---,0.24,VWS V14.01,2013-04-11 00:03:00,
2013-04-10 19:08:00,42.4,40.0,29.87,NW,307,5.0,11.0,91,0.00,,---,0.24,VWS V14.01,2013-04-11 00:08:00,
2013-04-10 19:13:00,42.4,39.7,29.87,WNW,297,6.0,11.0,90,0.00,,---,0.24,VWS V14.01,2013-04-11 00:13:00,
2013-04-10 19:18:00,42.3,39.6,29.86,WNW,297,8.0,11.0,90,0.00,,---,0.24,VWS V14.01,2013-04-11 00:18:00,
2013-04-10 19:23:00,42.2,39.8,29.86,WNW,300,6.0,13.0,91,0.00,,---,0.24,VWS V14.01,2013-04-11 00:23:00,
2013-04-10 19:28:00,42.2,39.8,29.87,NW,310,7.0,13.0,91,0.00,,---,0.24,VWS V14.01,2013-04-11 00:28:00,
2013-04-10 19:33:00,42.2,39.8,29.86,NW,326,4.0,6.0,91,0.00,,---,0.24,VWS V14.01,2013-04-11 00:33:00,
2013-04-10 19:38:00,42.1,39.4,29.86,NW,311,6.0,9.0,90,0.00,,---,0.24,VWS V14.01,2013-04-11 00:38:00,
2013-04-10 19:43:00,42.3,39.9,29.86,WNW,301,6.0,10.0,91,0.00,,---,0.24,VWS V14.01,2013-04-11 00:43:00,
2013-04-10 19:48:00,42.3,39.9,29.86,WNW,287,7.0,10.0,91,0.00,,---,0.24,VWS V14.01,2013-04-11 00:48:00,
2013-04-10 19:53:00,42.2,39.5,29.86,WNW,300,8.0,12.0,90,0.00,,---,0.24,VWS V14.01,2013-04-11 00:53:00,
2013-04-10 19:58:00,42.4,40.0,29.87,NW,305,4.0,12.0,91,0.00,,---,0.24,VWS V14.01,2013-04-11 00:58:00,
2013-04-10 20:03:00,42.5,40.1,29.87,NW,305,6.0,7.0,91,0.00,,---,0.24,VWS V14.01,2013-04-11 01:03:00,
2013-04-10 20:08:00,42.4,39.7,29.87,NW,308,7.0,7.0,90,0.00,,---,0.24,VWS V14.01,2013-04-11 01:08:00,
2013-04-10 20:12:00,42.4,39.7,29.87,NNW,348,4.0,10.0,90,0.00,,---,0.24,VWS V14.01,2013-04-11 01:12:00,
2013-04-10 20:17:00,42.4,39.7,29.87,NW,321,1.0,10.0,90,0.00,,---,0.24,VWS V14.01,2013-04-11 01:17:00,
2013-04-10 20:22:00,42.5,40.1,29.88,WNW,302,2.0,10.0,91,0.00,,---,0.24,VWS V14.01,2013-04-11 01:22:00,
2013-04-10 20:27:00,42.5,39.8,29.88,NW,308,6.0,10.0,90,0.00,,---,0.24,VWS V14.01,2013-04-11 01:27:00,
2013-04-10 20:32:00,42.5,39.8,29.87,NE,35,1.0,4.0,90,0.00,,---,0.24,VWS V14.01,2013-04-11 01:32:00,
2013-04-10 20:38:00,42.4,39.7,29.88,NW,307,5.0,7.0,90,0.00,,---,0.24,VWS V14.01,2013-04-11 01:38:00,
2013-04-10 20:43:00,42.4,39.7,29.88,NW,316,3.0,7.0,90,0.00,,---,0.24,VWS V14.01,2013-04-11 01:43:00,
2013-04-10 20:48:00,42.3,39.6,29.88,NW,321,4.0,7.0,90,0.00,,---,0.24,VWS V14.01,2013-04-11 01:48:00,
2013-04-10 20:53:00,42.3,39.6,29.88,NW,304,3.0,7.0,90,0.00,,---,0.24,VWS V14.01,2013-04-11 01:53:00,
2013-04-10 20:58:00,42.3,39.6,29.88,ENE,61,0.0,7.0,90,0.00,,---,0.24,VWS V14.01,2013-04-11 01:58:00,
2013-04-10 21:03:00,42.4,39.7,29.89,NW,323,5.0,9.0,90,0.00,,---,0.24,VWS V14.01,2013-04-11 02:03:00,
2013-04-10 21:08:00,42.5,39.8,29.89,WNW,301,3.0,9.0,90,0.00,,---,0.24,VWS V14.01,2013-04-11 02:08:00,
2013-04-10 21:13:00,42.5,39.8,29.89,NNW,332,4.0,9.0,90,0.00,,---,0.24,VWS V14.01,2013-04-11 02:13:00,
2013-04-10 21:18:00,42.5,39.8,29.89,NNW,333,5.0,9.0,90,0.00,,---,0.24,VWS V14.01,2013-04-11 02:18:00,
2013-04-10 21:23:00,42.4,39.7,29.89,NW,311,5.0,9.0,90,0.00,,---,0.24,VWS V14.01,2013-04-11 02:23:00,
2013-04-10 21:28:00,42.4,39.4,29.90,WNW,297,7.0,10.0,89,0.00,,---,0.24,VWS V14.01,2013-04-11 02:28:00,
2013-04-10 21:33:00,42.4,39.7,29.90,WNW,300,5.0,6.0,90,0.00,,---,0.24,VWS V14.01,2013-04-11 02:33:00,
2013-04-10 21:38:00,42.4,39.7,29.90,NW,304,3.0,8.0,90,0.00,,---,0.24,VWS V14.01,2013-04-11 02:38:00,
2013-04-10 21:43:00,42.4,39.7,29.90,NW,305,4.0,8.0,90,0.00,,---,0.24,VWS V14.01,2013-04-11 02:43:00,
2013-04-10 21:48:00,42.4,39.7,29.90,NW,316,3.0,11.0,90,0.00,,---,0.24,VWS V14.01,2013-04-11 02:48:00,
2013-04-10 21:53:00,42.5,39.8,29.90,NW,312,5.0,11.0,90,0.00,,---,0.24,VWS V14.01,2013-04-11 02:53:00,
2013-04-10 21:58:00,42.5,39.8,29.91,NW,308,4.0,11.0,90,0.00,,---,0.24,VWS V14.01,2013-04-11 02:58:00,
2013-04-10 22:02:00,42.5,39.8,29.91,North,11,1.0,5.0,90,0.00,,---,0.24,VWS V14.01,2013-04-11 03:02:00,
2013-04-10 22:07:00,42.5,39.8,29.91,NW,311,2.0,5.0,90,0.00,,---,0.24,VWS V14.01,2013-04-11 03:07:00,
2013-04-10 22:12:00,42.5,39.5,29.91,NNW,333,2.0,7.0,89,0.00,,---,0.24,VWS V14.01,2013-04-11 03:12:00,
2013-04-10 22:17:00,42.4,39.4,29.92,NW,305,2.0,7.0,89,0.00,,---,0.24,VWS V14.01,2013-04-11 03:17:00,
2013-04-10 22:22:00,42.3,39.3,29.92,NW,312,4.0,7.0,89,0.00,,---,0.24,VWS V14.01,2013-04-11 03:22:00,
2013-04-10 22:27:00,42.2,39.2,29.92,NW,323,2.0,7.0,89,0.00,,---,0.24,VWS V14.01,2013-04-11 03:27:00,
2013-04-10 22:32:00,42.0,39.0,29.92,NW,309,2.0,8.0,89,0.00,,---,0.24,VWS V14.01,2013-04-11 03:32:00,
2013-04-10 22:37:00,41.9,38.9,29.91,NW,318,2.0,8.0,89,0.00,,---,0.24,VWS V14.01,2013-04-11 03:37:00,
2013-04-10 22:42:00,41.7,38.7,29.91,NW,310,2.0,8.0,89,0.00,,---,0.24,VWS V14.01,2013-04-11 03:42:00,
2013-04-10 22:47:00,41.6,38.6,29.91,NNW,341,4.0,8.0,89,0.00,,---,0.24,VWS V14.01,2013-04-11 03:47:00,
2013-04-10 22:52:00,41.5,38.5,29.91,NW,320,1.0,8.0,89,0.00,,---,0.24,VWS V14.01,2013-04-11 03:52:00,
2013-04-10 22:57:00,41.5,38.5,29.91,NNW,328,3.0,8.0,89,0.00,,---,0.24,VWS V14.01,2013-04-11 03:57:00,
2013-04-10 23:00:00,41.5,38.5,29.91,NNW,334,3.0,8.0,89,0.00,,---,0.24,VWS V14.01,2013-04-11 04:00:00,
2013-04-10 23:05:00,41.6,38.6,29.92,WNW,302,3.0,5.0,89,0.00,,---,0.24,VWS V14.01,2013-04-11 04:05:00,
2013-04-10 23:10:00,41.7,38.4,29.91,NNW,342,5.0,10.0,88,0.00,,---,0.24,VWS V14.01,2013-04-11 04:10:00,
2013-04-10 23:15:00,41.8,38.5,29.91,NW,326,3.0,10.0,88,0.00,,---,0.24,VWS V14.01,2013-04-11 04:15:00,
2013-04-10 23:20:00,41.9,38.6,29.91,NW,322,2.0,10.0,88,0.00,,---,0.24,VWS V14.01,2013-04-11 04:20:00,
2013-04-10 23:25:00,42.0,38.4,29.91,NW,321,2.0,10.0,87,0.00,,---,0.24,VWS V14.01,2013-04-11 04:25:00,
2013-04-10 23:30:00,42.0,38.4,29.92,NW,316,2.0,10.0,87,0.00,,---,0.24,VWS V14.01,2013-04-11 04:30:00,
2013-04-10 23:35:00,42.1,38.5,29.91,NW,311,5.0,8.0,87,0.00,,---,0.24,VWS V14.01,2013-04-11 04:35:00,
2013-04-10 23:40:00,42.2,38.6,29.91,NNW,346,0.0,8.0,87,0.00,,---,0.24,VWS V14.01,2013-04-11 04:40:00,
2013-04-10 23:45:00,42.3,38.7,29.91,NW,323,6.0,8.0,87,0.00,,---,0.24,VWS V14.01,2013-04-11 04:45:00,
2013-04-10 23:50:00,42.4,38.5,29.92,NNW,330,6.0,8.0,86,0.00,,---,0.24,VWS V14.01,2013-04-11 04:50:00,
2013-04-10 23:55:00,42.4,38.2,29.91,NW,314,5.0,10.0,85,0.00,,---,0.24,VWS V14.01,2013-04-11 04:55:00,